Content
SEND FEEDBACK

Daily
Averages
Monthly
Summary
India

TRIVANDRUM, INDIA


Home > Asia > India
Elevation: 205 feet     Latitude: 08 29N     Longitude: 076 57E

WEATHER
 
SELECT A DAY
Number of Records: 112,214;   Date Range: 7/1/96 - 7/27/14
 
SHARE

PRINT THIS DATA

[ ← Previous Day ]
WEATHER ALMANAC - FEBRUARY 10, 2013
[ Next Day → ]
[ °C ]   °F
Weather ElementAverageHighLow
Temperature82.8 °F87.8 °F (2:40 pm)77 °F (6:10 am)
Dewpoint71.6 °F75.2 °F (11:10 am)66.2 °F (6:10 am)
Humidity69.1 %74 % (2:10 am)62 % (1:10 pm)
Barometer28.97 in29.83 in (1:10 am) (7:00 pm)
Wind Speed2.4 mph8.1 mph (3:10 pm)
Weather ElementAverage
Visibility3.1 mi
Wind DirectionSE (139.2 °)

Weather ElementTotal
Precipitation---
Cooling Degree Days17.4 (Base 65)
Growing Degree Days32.4 (Base 50)
Averaged from 38 records on February 10, 2013
WEATHER CONDITIONS BREAKOUT
WIND DIRECTION BREAKOUT
WEATHER BY HOUR - FEBRUARY 10, 2013
[ °C ]   °F
Local TimeTemperatureDewpointHumidityBarometerVisibilityWind DirectionWind SpeedGust SpeedPrecipitationEventsConditions
1:10 AM80.6 °F69.8 °F70 %29.83 in3.1 miCalmHaze
1:40 AM80.6 °F69.8 °F70 %29.80 in2.5 miCalmHaze
2:10 AM78.8 °F69.8 °F74 %29.80 in2.5 miCalmHaze
2:40 AM78.8 °F69.8 °F74 %29.80 in2.5 miCalmHaze
3:10 AM78.8 °F68.0 °F69 %29.77 in2.5 miCalmHaze
3:40 AM78.8 °F68.0 °F69 %29.77 in2.5 miCalmHaze
4:10 AM78.8 °F68.0 °F69 %29.77 in2.5 miCalmHaze
5:10 AM78.8 °F68.0 °F69 %29.77 in2.5 miCalmHaze
5:40 AM78.8 °F68.0 °F69 %29.77 in2.5 miCalmHaze
6:10 AM77.0 °F66.2 °F69 %2.5 miCalmHaze
7:10 AM77.0 °F68.0 °F74 %29.80 in1.9 miCalmHaze
8:10 AM78.8 °F68.0 °F69 %29.83 in1.9 miCalmHaze
8:40 AM82.4 °F69.8 °F66 %29.83 in2.2 miCalmHaze
9:10 AM82.4 °F69.8 °F66 %29.83 in2.2 miCalmHaze
10:10 AM84.2 °F73.4 °F70 %29.83 in3.1 miWNW (290°)3.5 mphHaze
11:10 AM86.0 °F75.2 °F70 %29.83 in3.7 miSW (230°)3.5 mphPartly Cloudy
11:40 AM86.0 °F75.2 °F70 %29.83 in3.7 miNW (310°)5.8 mphPartly Cloudy
12:10 PM86.0 °F75.2 °F70 %29.80 in3.7 miWNW (300°)5.8 mphPartly Cloudy
1:10 PM86.0 °F71.6 °F62 %29.77 in3.7 miWNW (300°)6.9 mphPartly Cloudy
1:40 PM86.0 °F71.6 °F62 %29.77 in3.7 miWNW (290°)4.6 mphPartly Cloudy
2:10 PM86.0 °F73.4 °F66 %29.74 in3.7 miWNW (290°)4.6 mphScattered Clouds
2:40 PM87.8 °F73.4 °F62 %29.71 in3.7 miWNW (290°)6.9 mphScattered Clouds
3:10 PM86.0 °F73.4 °F66 %29.71 in3.7 miWest (280°)8.1 mphScattered Clouds
3:40 PM86.0 °F73.4 °F66 %29.71 in3.7 miWNW (300°)6.9 mphScattered Clouds
4:10 PM87.8 °F73.4 °F62 %29.71 in3.7 miWNW (290°)6.9 mphScattered Clouds
4:40 PM86.0 °F73.4 °F66 %29.71 in3.7 miWest (280°)4.6 mphScattered Clouds
5:10 PM86.0 °F71.6 °F62 %29.71 in3.7 miWNW (290°)5.8 mphScattered Clouds
5:40 PM86.0 °F73.4 °F66 %29.71 in3.7 miWNW (300°)4.6 mphPartly Cloudy
6:10 PM84.2 °F73.4 °F70 %29.74 in3.7 miWNW (290°)3.5 mphPartly Cloudy
6:40 PM84.2 °F73.4 °F70 %29.74 in3.7 miWNW (300°)3.5 mphPartly Cloudy
7:10 PM84.2 °F73.4 °F70 %29.74 in3.1 miNNW (330°)3.5 mphHaze
8:10 PM82.4 °F73.4 °F74 %29.80 in3.1 miNNW (330°)2.3 mphHaze
8:40 PM82.4 °F73.4 °F74 %29.80 in3.1 miCalmHaze
9:10 PM82.4 °F73.4 °F74 %29.80 in3.1 miCalmHaze
9:40 PM82.4 °F73.4 °F74 %29.83 in3.1 miCalmHaze
10:10 PM82.4 °F73.4 °F74 %29.83 in3.1 miCalmHaze
11:10 PM82.4 °F73.4 °F74 %29.83 in2.5 miCalmHaze
11:40 PM82.4 °F73.4 °F74 %29.83 in2.5 miCalmHaze
Hourly data recorded from VOTV, located miles away from Trivandrum, India







STORIES FROM OUR PARTNERS